Vertical_Velocity
-1 -1 -1 -2 -2 -3 -3 -3 -4 -6 -6 -4 -3 -3 -4 -6 -9 -10 -9 -6 -5 -6 -8 -10 -6 -1 4 5 3 0 -2 -4 -4 -4 -3 -0 2 3 3 4 3 1 0 -1 -1 -1 -0 0 1 0 -0 -1 -1 -0 0 1 2 2 2 1 1 1 2 2 2 3 3 2 -1
1 1 -0 -1 -2 -1 -0 1 -1 -3 -4 -4 -4 -4 -5 -6 -9 -10 -10 -9 -10 -10 -10 -6 -0 4 5 3 1 -0 -2 -3 -3 -2 -0 2 3 4 4 3 -0 -2 -3 -2 -1 -0 0 -0 0 -0 -1 -1 0 1 1 1 2 3 3 3 4 5 5 5 4 2 1 -2 -5
5 4 3 1 1 2 3 4 4 2 -0 -1 -2 -4 -5 -6 -7 -8 -8 -8 -7 -6 -3 1 4 4 4 2 2 1 0 -1 -0 1 3 4 6 5 2 -2 -5 -5 -3 -1 0 1 1 0 0 0 0 0 1 2 2 2 3 4 5 5 7 8 7 4 2 -1 -3 -5 -5
6 6 5 6 5 4 3 5 6 5 4 2 1 -1 -2 -3 -3 -3 -2 -1 0 0 0 1 3 3 3 3 3 2 2 2 3 4 6 7 6 1 -4 -8 -6 -3 -1 1 1 1 1 1 1 1 1 2 2 3 3 3 4 6 7 7 7 6 3 -1 -2 -3 -4 -4 -3
7 6 6 9 9 7 5 6 7 7 6 5 4 2 1 0 1 2 3 4 3 1 -0 -1 2 3 4 5 6 7 7 6 8 9 9 5 -1 -7 -10 -7 -2 1 2 2 2 1 1 2 2 2 2 3 3 3 3 4 5 6 6 7 4 1 -2 -4 -4 -4 -3 -3 -1
7 8 9 12 12 11 10 9 6 5 5 4 3 1 0 0 1 2 2 2 1 0 1 1 2 4 6 7 11 13 13 11 15 15 11 0 -9 -11 -8 -2 1 3 3 3 2 2 2 3 4 4 3 4 4 3 3 4 4 4 4 4 1 -2 -3 -4 -4 -3 -3 -3 -1
4 9 14 18 15 13 12 10 6 4 2 1 -0 -1 -1 -1 -0 -0 -1 -1 0 1 2 3 5 6 6 6 8 11 14 14 15 12 5 -6 -9 -8 -3 2 3 4 3 2 2 2 3 5 6 5 5 5 4 4 3 4 3 2 1 0 -2 -2 -2 -3 -4 -4 -4 -4 -3
9 11 15 19 19 17 13 7 4 2 0 -1 -2 -2 -1 -0 -0 -1 -1 0 1 2 2 3 6 8 8 4 1 1 5 10 13 10 3 -6 -5 -2 2 5 4 3 2 1 2 3 4 5 7 8 8 6 6 5 4 2 1 0 -1 -1 -2 -2 -1 -2 -3 -4 -5 -6 -6
17 12 13 18 24 23 18 10 4 2 1 2 1 1 1 2 1 -0 -1 -0 0 2 4 5 6 8 9 6 -0 -6 -8 -2 8 11 7 1 0 2 3 5 4 3 2 2 3 5 6 9 9 8 6 4 4 4 3 2 1 -1 -2 -2 -2 -1 -1 -1 -2 -4 -6 -8 -8
17 11 10 16 22 24 22 17 10 7 9 12 11 9 7 6 3 -1 -3 -2 2 6 8 7 7 7 8 7 4 0 -2 -0 7 10 10 5 2 1 1 2 3 3 3 3 5 7 9 10 7 3 0 -1 0 1 1 2 2 0 -1 -2 -1 -1 -1 -1 -1 -3 -6 -9 -9
16 12 8 9 13 18 21 18 13 11 11 14 13 12 10 8 4 -2 -4 4 12 16 16 11 7 6 6 6 6 6 7 8 11 11 10 5 1 -1 -1 0 2 4 5 6 9 10 9 7 3 -1 -3 -3 -2 -1 -0 2 2 1 -1 -2 -1 -0 -1 -2 -2 -4 -7 -10 -9
14 16 13 7 7 11 14 11 8 6 6 7 8 8 8 6 2 -4 -5 4 14 21 24 23 15 10 7 7 6 7 8 10 12 11 8 2 -1 -1 -1 -0 2 4 6 12 14 11 7 4 1 -1 -2 -3 -1 -0 1 2 2 1 -0 -2 -1 -0 -1 -3 -5 -6 -8 -10 -6
7 14 18 14 10 8 6 4 2 1 1 3 7 7 4 2 -1 -4 -6 -5 5 16 24 28 21 14 9 9 8 8 8 10 10 7 3 -1 -2 -2 -1 -0 0 2 6 12 12 8 3 1 -0 -1 -2 -2 0 2 3 4 3 2 0 -0 -0 -1 -3 -5 -6 -8 -9 -9 -1
1 7 13 18 11 5 1 -1 -1 -2 -2 -0 7 7 4 -1 -3 -4 -4 -4 1 9 15 18 15 12 9 10 9 7 5 5 3 0 -3 -5 -4 -3 -3 -4 -4 -1 2 5 4 3 1 -0 -1 -2 -2 -2 0 2 4 5 4 2 0 -1 -2 -4 -6 -7 -7 -7 -7 -6 3
-3 -0 5 10 7 3 -2 -4 -1 -0 -1 -3 1 4 4 0 -2 -3 -2 1 4 7 9 8 7 7 7 8 5 4 2 2 -1 -4 -6 -8 -7 -7 -8 -9 -9 -7 -4 -1 0 1 2 1 -1 -1 -2 -2 -0 1 3 4 3 1 -2 -4 -5 -6 -7 -7 -6 -6 -5 -5 3
-4 -4 -3 -1 -0 -1 -3 -4 -1 1 2 -0 -1 1 3 3 2 1 1 2 3 4 5 4 2 2 3 2 1 1 1 0 -0 -1 -3 -4 -6 -7 -7 -6 -6 -6 -5 -4 -1 1 3 3 2 1 -0 -1 -0 1 2 3 1 -1 -3 -5 -5 -6 -6 -6 -5 -4 -5 -6 -3
-3 -3 -4 -5 -3 -2 -1 -2 -0 1 2 2 2 2 3 3 4 4 4 1 -0 -0 0 -0 -1 -1 -1 -1 -1 -1 -1 -1 1 2 3 2 2 3 6 9 11 12 10 7 4 3 4 4 3 2 1 1 1 2 2 2 0 -1 -3 -5 -6 -6 -6 -5 -4 -4 -4 -4 -4
2 0 -1 -2 -1 -0 1 2 2 2 2 2 3 3 3 2 2 2 2 -1 -2 -3 -3 -3 -3 -3 -3 -2 -2 -2 -3 -2 0 2 4 4 6 9 13 17 21 24 24 21 17 15 13 10 9 6 3 2 2 2 2 1 0 -1 -3 -6 -8 -8 -7 -4 -2 -1 0 1 1
6 3 2 1 0 1 2 3 4 4 3 3 3 3 3 2 1 0 0 -1 -2 -3 -3 -2 -3 -3 -2 -2 -2 -2 -2 -1 -0 1 2 3 4 5 7 9 13 15 17 17 17 17 18 18 17 14 10 9 9 8 7 6 6 2 -3 -9 -10 -8 -5 -1 2 4 5 6 6
7 4 2 1 1 1 2 3 4 5 5 5 5 4 4 3 3 3 2 -1 -2 -2 -2 -1 -2 -2 -2 -2 -1 -1 -1 -1 -0 0 0 1 1 1 1 2 3 4 5 6 6 7 9 11 12 12 12 13 12 12 13 15 13 6 -4 -11 -8 -4 -1 1 3 5 6 7 6
11 9 6 4 2 1 1 2 3 4 5 5 5 5 4 4 7 8 6 1 -1 -1 -1 0 0 -1 -3 -3 -1 -0 0 1 0 -0 -0 -0 -0 -1 -1 -1 -0 -0 -0 0 0 1 1 2 2 3 4 5 5 6 8 11 9 2 -4 -7 -4 -1 -0 1 1 1 0 -1 -1
12 11 9 7 5 3 3 2 3 4 4 5 5 4 4 3 5 6 6 5 3 1 1 2 3 2 -0 -2 -2 -1 1 2 1 0 -1 -1 -1 -1 0 2 1 0 -1 -1 -3 -3 -3 -4 -4 -4 -3 -2 -3 -2 -1 2 1 -1 -2 0 0 -1 -2 -3 -4 -5 -4 -3 1
6 7 7 6 6 6 7 7 7 6 6 6 7 7 6 4 3 3 4 6 4 3 2 3 4 4 2 1 -0 -1 -0 1 1 0 -1 -1 -1 -0 1 3 2 0 -1 -3 -5 -7 -8 -9 -9 -8 -6 -4 -5 -5 -5 -2 -2 -1 0 3 1 -1 -4 -6 -6 -3 2 8 12
4 5 5 6 7 7 7 7 8 9 10 11 13 14 14 12 8 7 7 9 8 6 4 4 3 2 1 2 2 1 -0 -0 -0 -0 -0 -0 0 1 1 1 1 -0 -2 -3 -5 -6 -7 -7 -7 -6 -6 -5 -6 -7 -6 -4 -2 -1 -0 2 0 -3 -6 -9 -6 1 8 12 10
3 3 3 4 5 6 6 6 6 7 8 10 13 16 18 17 16 15 16 15 12 7 4 2 2 1 2 4 4 5 4 2 0 0 1 1 0 -0 -1 -2 -3 -4 -5 -6 -6 -6 -6 -5 -4 -4 -3 -3 -2 -2 -1 -1 0 1 1 2 -0 -3 -7 -9 -3 2 5 4 2
1 1 1 1 3 4 5 5 5 5 5 4 5 6 8 9 10 13 15 15 12 9 6 4 4 4 4 5 7 9 8 3 0 -1 -1 -2 -3 -4 -4 -5 -6 -7 -7 -7 -6 -5 -5 -3 -1 1 3 6 8 10 10 9 7 5 4 3 -0 -4 -7 -6 -2 0 1 -0 -1
-2 -1 -1 0 1 2 3 4 4 4 4 3 2 1 -0 -1 -0 4 7 10 11 11 11 12 9 7 5 4 4 5 4 1 -2 -4 -5 -5 -4 -4 -4 -4 -4 -4 -4 -4 -3 -2 -1 2 5 7 9 10 11 12 12 10 8 7 5 3 -1 -5 -6 -4 -1 1 1 0 1
-4 -4 -3 -2 -1 1 2 3 4 4 4 4 4 3 1 -0 -1 -0 1 1 4 7 10 15 18 17 13 9 3 -0 -1 -1 -1 -0 1 2 -1 -2 -3 -3 -2 -1 -1 -0 0 2 3 5 7 8 9 9 9 9 9 8 6 4 2 -0 -4 -5 -4 -1 1 3 3 2 2
-5 -4 -4 -3 -2 -1 -0 1 2 2 3 4 4 4 3 2 1 0 -1 -2 -1 1 4 10 19 24 26 22 14 6 -1 -3 -1 4 11 15 13 10 6 2 2 2 3 3 4 4 4 5 6 7 7 6 6 5 4 2 1 0 -1 -3 -3 -2 1 4 6 6 5 2 1
-3 -3 -3 -3 -2 -2 -2 -1 -0 1 2 2 3 3 3 2 1 -1 -2 -4 -5 -5 -3 -1 8 16 22 24 23 17 9 1 -1 4 12 17 15 10 5 0 -0 1 2 4 5 5 4 3 4 4 4 4 3 2 2 1 1 1 2 2 4 5 7 8 7 5 3 1 -0
-2 -2 -1 -1 -1 -1 -1 -1 -1 -0 0 1 1 1 1 0 -1 -3 -4 -5 -6 -7 -7 -7 -3 1 5 10 14 16 15 10 7 9 10 11 6 1 -2 -3 -3 -2 -1 2 4 4 4 4 4 4 5 6 7 8 8 9 9 9 9 8 8 7 7 6 4 3 2 1 2
-0 -0 0 2 2 2 1 0 -0 -0 -0 0 0 0 -0 -1 -2 -3 -3 -3 -3 -4 -4 -6 -7 -7 -5 -2 1 6 10 12 13 12 11 7 1 -2 -4 -4 -4 -3 -1 1 3 5 6 7 8 9 11 12 12 13 13 12 11 10 8 6 5 3 2 2 3 3 4 4 5
6 4 4 4 6 7 7 6 4 2 1 0 -0 -1 -1 -2 -1 0 1 -1 -1 1 3 3 -1 -5 -7 -7 -4 2 7 11 12 12 10 5 -1 -4 -4 -4 -3 -1 1 3 5 7 9 10 11 12 12 11 10 9 8 7 6 5 3 2 1 1 1 3 5 6 6 5 4
9 9 8 6 8 9 10 9 8 6 3 1 -0 -1 -2 -4 -2 -0 -0 -2 -3 0 5 9 6 2 -1 -2 0 3 5 7 10 10 7 1 -3 -4 -4 -3 -0 2 4 6 7 8 9 9 9 8 6 5 4 3 3 2 2 1 1 0 1 2 3 4 5 5 4 3 2
7 8 8 7 6 6 6 6 7 9 9 8 4 1 -2 -3 -3 -3 -3 -4 -4 -3 1 6 8 9 8 7 4 2 1 0 3 3 1 -3 -4 -4 -2 1 4 5 6 6 6 6 6 5 4 2 1 1 1 1 1 0 -0 -0 -0 0 1 2 2 2 2 2 2 2 1
5 6 7 7 6 4 3 3 4 6 7 9 8 6 4 2 0 -2 -3 -3 -3 -3 -2 1 5 8 9 6 2 -2 -4 -4 -3 -2 -3 -3 -3 -1 2 4 5 5 5 4 4 3 2 1 0 -0 -0 0 1 1 1 0 -0 -1 -0 0 1 1 1 1 1 1 1 1 1
3 4 5 5 4 3 2 2 2 2 3 5 7 8 7 7 4 1 -2 -2 -2 -2 -2 -2 1 3 2 -0 -2 -3 -4 -3 -3 -2 -2 -1 1 3 4 6 6 6 5 3 2 2 2 1 1 0 0 1 1 1 1 0 -0 -0 -0 0 1 1 1 1 1 1 0 1 1
1 2 2 2 1 1 1 1 1 1 1 3 5 6 6 6 4 2 -0 -2 -2 -2 -2 -1 -0 -0 -1 -2 -2 -2 -1 -1 0 1 2 3 4 6 7 9 10 9 7 5 5 4 4 4 3 2 2 2 2 1 1 1 1 1 1 1 1 1 1 0 -0 -0 -0 -0 -0
1 1 0 -0 -1 -2 -2 -1 -1 -0 1 2 4 5 5 5 5 4 3 1 1 0 -0 0 -0 -0 -0 1 2 3 4 5 6 6 6 6 6 7 8 10 10 9 7 6 5 5 5 4 4 4 4 4 3 3 2 2 2 1 1 0 0 -0 -1 -1 -1 -1 -1 -1 -1
0 0 0 -0 -1 -2 -3 -3 -3 -2 -1 1 2 3 4 6 5 5 5 6 6 6 5 4 2 2 2 3 5 7 9 11 12 11 9 7 6 6 7 8 7 6 5 4 4 4 4 4 4 4 4 4 3 3 2 2 1 0 -0 -1 -1 -1 -1 -1 -1 -0 0 0 0
-1 -1 -1 -1 -1 -2 -3 -4 -4 -4 -3 -1 -0 1 2 4 5 5 6 8 9 10 9 9 8 7 6 6 7 9 10 12 12 11 10 7 6 6 6 6 5 3 2 2 2 2 3 3 3 3 3 3 2 2 2 1 1 1 0 -0 0 1 1 1 1 1 1 1 1
Height
3019 3021 3023 3025 3027 3029 3031 3033 3035 3037 3039 3042 3044 3046 3048 3051 3053 3056 3058 3061 3063 3066 3068 3070 3072 3074 3076 3077 3077 3078 3080 3082 3085 3087 3090 3093 3095 3097 3099 3101 3103 3105 3107 3108 3110 3111 3112 3113 3115 3116 3117 3118 3120 3121 3122 3123 3125 3126 3127 3127 3128 3128 3129 3129 3130 3130 3131 3132 3132
3017 3019 3022 3023 3025 3027 3029 3031 3033 3035 3037 3040 3042 3045 3047 3050 3052 3055 3058 3060 3063 3065 3067 3069 3070 3072 3073 3074 3075 3077 3079 3081 3084 3087 3090 3092 3094 3096 3098 3100 3102 3104 3105 3107 3108 3109 3110 3112 3113 3114 3115 3117 3118 3119 3121 3122 3123 3124 3125 3126 3126 3127 3127 3127 3127 3128 3128 3129 3129
3016 3018 3020 3021 3023 3025 3027 3029 3031 3033 3035 3038 3041 3044 3047 3049 3052 3055 3057 3060 3062 3064 3066 3067 3068 3069 3071 3072 3074 3076 3078 3080 3083 3086 3088 3091 3093 3095 3097 3099 3101 3102 3104 3105 3106 3107 3108 3110 3111 3112 3114 3115 3116 3117 3119 3120 3121 3122 3123 3123 3124 3124 3125 3125 3125 3125 3126 3127 3127
3014 3016 3018 3020 3022 3024 3026 3028 3030 3032 3034 3037 3040 3042 3046 3049 3052 3054 3057 3059 3061 3062 3063 3065 3066 3067 3069 3071 3072 3075 3077 3079 3082 3084 3087 3089 3091 3093 3096 3097 3099 3101 3102 3103 3104 3105 3106 3107 3109 3111 3112 3113 3114 3116 3117 3118 3119 3120 3121 3121 3122 3122 3122 3122 3122 3123 3124 3125 3126
3013 3015 3017 3020 3022 3023 3025 3027 3030 3032 3034 3036 3039 3042 3045 3047 3050 3053 3055 3057 3058 3060 3061 3062 3064 3066 3067 3069 3071 3073 3076 3078 3080 3082 3085 3087 3090 3092 3094 3096 3097 3098 3099 3100 3102 3103 3104 3106 3107 3109 3110 3111 3112 3113 3114 3115 3116 3117 3118 3118 3119 3119 3119 3119 3120 3121 3122 3123 3124
3013 3015 3018 3020 3022 3023 3025 3027 3029 3031 3033 3035 3037 3040 3043 3046 3048 3051 3052 3054 3056 3057 3059 3061 3062 3064 3066 3068 3071 3073 3075 3077 3079 3081 3082 3085 3088 3090 3092 3094 3095 3096 3097 3098 3099 3101 3102 3104 3105 3107 3107 3109 3110 3111 3112 3113 3114 3114 3115 3116 3116 3116 3117 3117 3118 3119 3120 3120 3121
3012 3016 3018 3021 3022 3023 3024 3026 3028 3030 3032 3034 3037 3039 3042 3044 3047 3048 3051 3052 3054 3056 3057 3060 3062 3063 3065 3067 3069 3072 3074 3076 3078 3079 3081 3084 3087 3089 3091 3092 3093 3094 3095 3096 3097 3099 3100 3102 3103 3104 3105 3106 3107 3108 3109 3110 3111 3112 3112 3113 3113 3114 3115 3116 3116 3117 3117 3118 3119
3013 3016 3018 3020 3022 3023 3023 3024 3027 3029 3032 3034 3036 3038 3041 3043 3045 3047 3049 3052 3053 3055 3057 3058 3061 3062 3064 3066 3068 3071 3073 3075 3077 3078 3080 3082 3085 3087 3089 3090 3091 3092 3093 3094 3096 3097 3098 3100 3101 3101 3102 3103 3104 3106 3107 3107 3108 3109 3110 3111 3111 3112 3113 3114 3114 3115 3115 3116 3117
3014 3016 3018 3020 3022 3023 3023 3024 3026 3029 3031 3033 3036 3038 3040 3042 3044 3047 3049 3051 3053 3055 3057 3058 3060 3062 3064 3066 3067 3070 3072 3074 3076 3077 3078 3081 3083 3085 3087 3088 3089 3090 3091 3092 3094 3095 3096 3097 3098 3099 3100 3101 3102 3103 3104 3105 3106 3107 3107 3108 3109 3110 3111 3112 3112 3113 3113 3114 3115
3014 3015 3017 3020 3022 3023 3024 3025 3027 3029 3031 3033 3035 3037 3039 3041 3043 3046 3048 3050 3052 3054 3056 3057 3059 3061 3063 3065 3067 3069 3072 3073 3074 3076 3077 3079 3081 3083 3084 3086 3087 3088 3089 3091 3092 3093 3093 3094 3095 3097 3098 3099 3100 3101 3102 3103 3104 3104 3105 3106 3107 3108 3109 3110 3110 3111 3111 3112 3112
3013 3015 3016 3019 3021 3022 3024 3025 3027 3028 3030 3032 3034 3036 3037 3040 3042 3045 3047 3049 3051 3052 3054 3056 3058 3060 3062 3064 3066 3068 3070 3072 3073 3074 3075 3077 3078 3080 3082 3083 3085 3086 3087 3088 3089 3089 3090 3092 3093 3094 3096 3097 3098 3099 3100 3101 3102 3102 3103 3104 3105 3106 3107 3107 3108 3108 3109 3110 3110
3012 3015 3016 3017 3019 3022 3023 3024 3026 3027 3029 3031 3032 3034 3036 3038 3041 3043 3046 3048 3050 3051 3053 3054 3056 3057 3060 3062 3064 3067 3068 3070 3071 3072 3073 3074 3076 3078 3080 3081 3083 3084 3085 3086 3086 3087 3088 3089 3091 3092 3094 3095 3096 3097 3098 3098 3099 3100 3101 3102 3103 3104 3104 3105 3105 3106 3107 3108 3108
3012 3014 3016 3017 3018 3020 3022 3023 3024 3026 3028 3030 3032 3033 3035 3037 3039 3042 3044 3046 3048 3050 3052 3052 3053 3055 3058 3060 3062 3064 3066 3067 3068 3069 3071 3072 3074 3075 3077 3079 3081 3082 3083 3083 3083 3084 3086 3087 3089 3090 3091 3092 3094 3095 3095 3096 3097 3097 3098 3099 3100 3101 3102 3102 3103 3104 3105 3106 3106
3010 3013 3015 3017 3017 3019 3020 3022 3024 3026 3027 3029 3031 3033 3034 3036 3038 3040 3042 3044 3046 3048 3049 3051 3052 3054 3057 3059 3061 3062 3064 3065 3066 3067 3068 3070 3072 3073 3075 3077 3078 3080 3081 3082 3082 3083 3084 3085 3087 3088 3089 3090 3091 3092 3093 3094 3095 3095 3096 3097 3098 3098 3099 3101 3102 3102 3102 3103 3104
3009 3012 3014 3016 3017 3018 3019 3022 3024 3025 3027 3028 3029 3031 3032 3034 3037 3039 3041 3042 3044 3046 3047 3049 3051 3053 3055 3057 3059 3061 3062 3064 3065 3066 3067 3069 3070 3072 3073 3075 3077 3078 3079 3080 3081 3082 3082 3083 3084 3085 3086 3087 3089 3090 3091 3091 3092 3093 3094 3095 3096 3097 3097 3099 3100 3100 3100 3101 3101
3008 3011 3013 3015 3016 3017 3019 3021 3023 3024 3026 3027 3028 3029 3031 3033 3035 3037 3039 3041 3042 3044 3046 3048 3050 3052 3053 3055 3057 3059 3061 3062 3064 3065 3067 3068 3070 3071 3072 3073 3075 3076 3077 3078 3079 3079 3080 3081 3082 3083 3084 3085 3086 3087 3088 3089 3090 3090 3091 3092 3093 3094 3096 3097 3097 3098 3098 3099 3099
3008 3010 3012 3013 3015 3017 3018 3019 3021 3023 3024 3026 3027 3028 3030 3032 3034 3036 3038 3039 3041 3043 3045 3046 3048 3050 3051 3053 3055 3057 3058 3060 3062 3063 3065 3067 3068 3070 3071 3071 3072 3073 3074 3075 3076 3077 3077 3078 3079 3080 3081 3082 3083 3084 3085 3086 3087 3087 3089 3090 3091 3092 3093 3094 3095 3096 3096 3097 3097
3007 3009 3011 3012 3014 3015 3017 3018 3019 3021 3022 3024 3025 3027 3028 3030 3032 3034 3036 3038 3039 3041 3043 3045 3047 3048 3050 3051 3053 3054 3056 3058 3060 3061 3062 3064 3066 3067 3068 3069 3070 3071 3072 3072 3074 3074 3075 3076 3076 3077 3079 3080 3081 3081 3082 3082 3083 3085 3086 3087 3088 3089 3090 3091 3092 3092 3092 3093 3093
3007 3009 3010 3011 3012 3014 3015 3016 3017 3019 3021 3022 3024 3026 3027 3029 3030 3032 3035 3036 3038 3039 3041 3043 3045 3047 3048 3050 3051 3053 3054 3056 3057 3059 3060 3061 3062 3063 3064 3065 3066 3067 3068 3069 3071 3072 3073 3073 3074 3075 3076 3077 3077 3078 3079 3080 3080 3081 3082 3084 3085 3086 3087 3087 3087 3088 3088 3089 3089
3007 3007 3009 3010 3012 3012 3013 3014 3016 3017 3019 3020 3022 3024 3026 3027 3029 3031 3033 3035 3036 3037 3039 3041 3042 3044 3046 3047 3049 3051 3052 3054 3055 3056 3057 3058 3059 3060 3061 3062 3063 3064 3066 3067 3067 3069 3070 3071 3072 3072 3073 3074 3074 3075 3076 3076 3077 3077 3079 3081 3082 3083 3083 3083 3083 3084 3085 3085 3086
3007 3007 3008 3009 3010 3011 3012 3013 3014 3016 3017 3018 3020 3022 3024 3026 3028 3030 3032 3033 3034 3036 3037 3039 3041 3042 3043 3045 3047 3048 3050 3051 3052 3054 3055 3056 3057 3058 3059 3061 3062 3063 3064 3065 3066 3067 3068 3068 3069 3069 3070 3071 3071 3072 3073 3073 3074 3075 3076 3078 3079 3080 3080 3079 3080 3081 3081 3082 3082
3007 3008 3009 3009 3010 3010 3011 3012 3013 3014 3015 3017 3018 3020 3022 3024 3026 3028 3030 3031 3033 3035 3037 3038 3039 3040 3041 3042 3044 3045 3047 3048 3050 3052 3053 3054 3056 3057 3058 3059 3060 3061 3062 3063 3064 3065 3066 3066 3067 3067 3067 3068 3068 3069 3070 3071 3072 3072 3074 3075 3076 3077 3077 3077 3077 3078 3078 3079 3080
3005 3007 3008 3009 3010 3011 3012 3012 3013 3014 3015 3016 3017 3019 3020 3022 3024 3026 3028 3030 3032 3034 3036 3037 3038 3039 3039 3040 3042 3043 3044 3046 3047 3049 3051 3052 3054 3055 3056 3057 3058 3059 3060 3061 3061 3062 3062 3063 3063 3064 3064 3064 3065 3066 3067 3068 3069 3070 3071 3072 3073 3074 3075 3075 3075 3076 3077 3077 3078
3005 3006 3007 3008 3009 3010 3011 3012 3013 3014 3015 3016 3017 3018 3020 3021 3023 3025 3027 3029 3031 3033 3034 3035 3037 3037 3038 3039 3040 3041 3042 3043 3045 3047 3049 3050 3052 3053 3054 3055 3055 3056 3057 3058 3058 3058 3058 3059 3059 3059 3059 3060 3060 3061 3062 3063 3064 3066 3068 3069 3071 3072 3073 3073 3073 3074 3075 3076 3076
3004 3006 3007 3008 3009 3010 3011 3012 3012 3013 3014 3016 3017 3019 3020 3022 3023 3025 3027 3029 3030 3031 3032 3034 3035 3036 3037 3037 3038 3039 3040 3041 3043 3044 3046 3048 3050 3051 3052 3053 3054 3054 3055 3056 3056 3056 3056 3056 3056 3056 3057 3057 3057 3057 3057 3058 3059 3062 3064 3067 3068 3070 3071 3071 3072 3072 3073 3073 3073
3004 3005 3007 3007 3008 3010 3011 3011 3012 3013 3013 3014 3016 3017 3018 3020 3022 3024 3026 3028 3029 3030 3031 3032 3033 3034 3034 3035 3036 3037 3038 3039 3041 3042 3045 3047 3049 3050 3051 3052 3052 3053 3054 3054 3054 3054 3054 3054 3055 3055 3056 3056 3056 3056 3056 3057 3057 3059 3062 3064 3066 3067 3068 3068 3069 3070 3070 3070 3070
3005 3006 3007 3008 3009 3010 3011 3012 3012 3013 3014 3014 3015 3016 3017 3019 3021 3022 3025 3026 3028 3029 3030 3032 3032 3032 3033 3034 3034 3035 3036 3037 3039 3042 3044 3046 3047 3049 3049 3050 3051 3051 3052 3052 3052 3052 3053 3053 3054 3055 3055 3056 3056 3056 3056 3057 3057 3059 3061 3062 3064 3065 3066 3066 3067 3067 3068 3068 3068
3006 3007 3007 3008 3009 3010 3011 3012 3012 3013 3014 3015 3016 3017 3018 3019 3020 3021 3023 3024 3026 3027 3029 3031 3032 3032 3032 3033 3034 3035 3036 3038 3039 3041 3042 3044 3045 3047 3047 3048 3049 3050 3050 3051 3051 3052 3052 3053 3053 3054 3055 3055 3055 3056 3056 3057 3057 3058 3060 3061 3062 3062 3063 3064 3065 3065 3066 3066 3067
3007 3007 3008 3009 3009 3010 3011 3012 3012 3013 3014 3015 3016 3017 3018 3019 3020 3021 3022 3023 3024 3026 3027 3028 3031 3032 3032 3033 3034 3035 3036 3038 3039 3040 3042 3042 3044 3045 3046 3047 3047 3048 3049 3049 3050 3051 3051 3052 3052 3053 3053 3054 3054 3055 3055 3056 3057 3057 3058 3059 3060 3061 3062 3062 3063 3063 3063 3064 3064
3007 3008 3009 3009 3010 3011 3011 3012 3013 3013 3014 3015 3016 3017 3018 3019 3020 3021 3022 3023 3024 3025 3026 3027 3029 3030 3032 3033 3034 3035 3036 3037 3039 3040 3041 3042 3042 3043 3044 3045 3046 3046 3047 3047 3048 3049 3049 3050 3051 3052 3052 3052 3053 3053 3054 3055 3055 3056 3057 3057 3058 3059 3060 3060 3061 3061 3061 3062 3062
3009 3009 3010 3010 3011 3011 3012 3012 3013 3014 3014 3015 3016 3017 3018 3019 3020 3021 3022 3023 3024 3025 3026 3027 3028 3029 3030 3031 3032 3034 3035 3037 3037 3038 3039 3040 3041 3042 3042 3043 3044 3044 3045 3046 3047 3047 3048 3049 3050 3050 3051 3051 3052 3052 3052 3053 3053 3054 3055 3055 3056 3057 3057 3058 3058 3059 3059 3060 3060
3009 3010 3010 3010 3011 3012 3012 3012 3013 3014 3015 3015 3016 3017 3017 3018 3019 3021 3022 3023 3024 3026 3027 3028 3028 3029 3030 3031 3032 3033 3034 3035 3036 3037 3037 3038 3039 3040 3041 3042 3042 3043 3044 3045 3045 3046 3047 3047 3048 3048 3049 3049 3050 3050 3050 3051 3051 3052 3052 3053 3053 3054 3055 3056 3057 3057 3057 3058 3058
3009 3009 3010 3010 3011 3011 3012 3012 3013 3014 3014 3015 3016 3017 3017 3018 3019 3021 3022 3023 3024 3025 3027 3027 3028 3029 3030 3030 3031 3032 3033 3034 3034 3035 3035 3036 3037 3038 3039 3040 3041 3042 3043 3043 3044 3045 3045 3046 3046 3046 3047 3047 3047 3047 3048 3048 3049 3049 3050 3051 3052 3052 3053 3054 3055 3055 3056 3056 3057
3009 3009 3009 3009 3010 3010 3011 3012 3012 3013 3014 3014 3015 3016 3017 3017 3019 3020 3022 3022 3023 3024 3025 3027 3027 3028 3029 3030 3031 3032 3032 3032 3033 3033 3034 3035 3036 3037 3038 3039 3040 3041 3041 3042 3042 3042 3043 3043 3043 3044 3044 3044 3045 3045 3046 3047 3047 3048 3049 3050 3051 3051 3052 3052 3053 3053 3054 3054 3055
3008 3008 3008 3008 3008 3009 3010 3011 3012 3012 3013 3014 3014 3015 3016 3017 3018 3019 3020 3021 3022 3022 3023 3025 3026 3027 3028 3029 3030 3030 3031 3031 3032 3032 3033 3034 3035 3036 3037 3037 3038 3039 3039 3040 3040 3040 3041 3041 3041 3042 3042 3043 3043 3044 3045 3046 3046 3047 3048 3048 3049 3050 3050 3051 3051 3052 3052 3053 3053
3007 3007 3007 3008 3008 3009 3010 3011 3011 3012 3012 3013 3013 3014 3015 3016 3017 3018 3019 3020 3021 3022 3022 3023 3024 3025 3026 3027 3028 3029 3029 3030 3031 3032 3032 3033 3034 3035 3035 3036 3037 3037 3037 3037 3038 3038 3039 3039 3040 3041 3042 3042 3043 3043 3044 3045 3045 3046 3047 3047 3048 3048 3049 3050 3050 3050 3051 3051 3052
3007 3008 3008 3008 3009 3009 3010 3010 3011 3011 3011 3012 3012 3013 3014 3015 3016 3017 3018 3019 3020 3021 3022 3022 3023 3024 3025 3026 3027 3027 3028 3029 3030 3031 3031 3032 3033 3033 3034 3035 3035 3035 3036 3036 3037 3037 3038 3038 3039 3040 3041 3041 3042 3042 3043 3044 3044 3045 3045 3046 3047 3047 3048 3048 3049 3049 3049 3050 3051
3008 3008 3008 3009 3009 3010 3010 3010 3010 3010 3011 3011 3012 3012 3013 3014 3015 3016 3017 3018 3018 3019 3020 3021 3022 3023 3024 3025 3026 3027 3027 3028 3029 3029 3030 3031 3031 3032 3032 3033 3034 3034 3034 3035 3035 3036 3037 3037 3038 3039 3040 3040 3041 3041 3042 3042 3043 3043 3044 3044 3045 3046 3046 3047 3047 3047 3048 3048 3049
3007 3008 3008 3009 3009 3010 3010 3010 3010 3010 3011 3011 3012 3012 3013 3014 3015 3015 3016 3017 3018 3018 3019 3020 3021 3022 3023 3024 3025 3025 3026 3027 3027 3028 3028 3029 3029 3030 3030 3031 3032 3032 3032 3033 3034 3035 3036 3036 3037 3037 3038 3039 3039 3040 3040 3041 3041 3042 3042 3043 3043 3044 3044 3045 3045 3046 3046 3047 3047
3007 3007 3007 3008 3009 3009 3010 3010 3010 3010 3011 3011 3012 3012 3012 3013 3014 3014 3015 3016 3017 3017 3018 3019 3020 3021 3022 3022 3023 3023 3023 3024 3025 3025 3026 3026 3027 3027 3028 3029 3029 3030 3031 3032 3032 3033 3034 3035 3036 3036 3037 3037 3037 3038 3038 3039 3039 3040 3040 3041 3041 3042 3042 3043 3043 3044 3044 3045 3045
3006 3006 3007 3007 3007 3008 3009 3009 3010 3010 3011 3011 3011 3012 3012 3012 3012 3013 3013 3014 3015 3016 3017 3017 3018 3019 3020 3020 3020 3021 3021 3021 3021 3022 3023 3023 3025 3025 3026 3027 3028 3028 3029 3030 3031 3032 3033 3033 3034 3035 3035 3036 3036 3037 3037 3037 3038 3038 3038 3039 3040 3040 3041 3041 3042 3042 3042 3043 3043